Colby, KS

5:26 AM CST on January 21, 2018 (GMT -0600)
Shaltz

Weather History for KCBK - August, 2014

Change the Weather History Date:

Tuesday, August 5, 2014

  Actual Average (KGLD) Record (KGLD)
Temperature  
Mean Temperature 79 °F -  
Max Temperature 89 °F 87 °F 107 °F (1934)
Min Temperature 69 °F 60 °F 47 °F (1974)
Cooling Degree Days 14    
Growing Degree Days 29 (Base 50)    
Moisture  
Dew Point 59 °F    
Average Humidity 52    
Maximum Humidity 78    
Minimum Humidity 38    
Precipitation  
Precipitation 0.00 in - - ()
Sea Level Pressure  
Sea Level Pressure 30.03 in    
Wind  
Wind Speed 12 mph (SSW)    
Max Wind Speed 20 mph    
Max Gust Speed 26 mph    
Visibility 10 miles    
Events Rain    
Averages and records for this station are not official NWS values.
T = Trace of Precipitation, MM = Missing Value Source: NWS Daily Summary

Daily Weather History Graph

Daily Weather History Graph

Search for Another Location

Airport or City:

Trip Planner

Search our weather history database for the weather conditions in past years. The results will help you decide how hot, cold, wet, or windy it might be!

Date:

Astronomy

Aug. 05, 2014 Rise Set
Actual Time 6:47 AM CDT 8:52 PM CDT
Civil Twilight 6:18 AM CDT 9:21 PM CDT
Nautical Twilight 5:41 AM CDT 9:57 PM CDT
Astronomical Twilight 5:02 AM CDT 10:36 PM CDT
Moon 4:09 PM CDT (8/5) 1:36 AM CDT (8/5)
Length of Visible Light 15h 03m
Length of Day
14h 04m
Waxing Gibbous, 68% of the Moon is Illuminated
Aug 5
Waxing Gibbous
Aug 10
Full
Aug 17
Last Quarter
Aug 25
New
Sep 2
First Quarter

Hourly Weather History & Observations

Time (CDT) Temp. Heat Index Dew Point Humidity Pressure Visibility Wind Dir Wind Speed Gust Speed Precip Events Conditions
12:15 AM 75.2 °F - 55.4 °F 50% 30.08 in 10.0 mi SSE 11.5 mph - N/A   Scattered Clouds
12:35 AM 73.4 °F - 55.4 °F 53% 30.08 in 10.0 mi SSE 11.5 mph - N/A   Clear
12:55 AM 73.4 °F - 55.4 °F 53% 30.08 in 10.0 mi South 11.5 mph - N/A   Clear
1:15 AM 73.4 °F - 55.4 °F 53% 30.07 in 10.0 mi SSE 10.4 mph - N/A   Scattered Clouds
1:35 AM 73.4 °F - 55.4 °F 53% 30.07 in 10.0 mi South 11.5 mph 16.1 mph N/A   Scattered Clouds
1:55 AM 73.4 °F - 55.4 °F 53% 30.07 in 10.0 mi South 11.5 mph 17.3 mph N/A   Scattered Clouds
2:15 AM 73.4 °F - 55.4 °F 53% 30.06 in 10.0 mi South 12.7 mph 16.1 mph N/A   Scattered Clouds
2:35 AM 73.4 °F - 55.4 °F 53% 30.06 in 10.0 mi South 12.7 mph 18.4 mph N/A   Scattered Clouds
2:55 AM 73.4 °F - 55.4 °F 53% 30.05 in 10.0 mi South 13.8 mph - N/A   Clear
3:15 AM 73.4 °F - 55.4 °F 53% 30.05 in 10.0 mi South 12.7 mph 17.3 mph N/A   Clear
3:35 AM 71.6 °F - 55.4 °F 57% 30.04 in 10.0 mi South 15.0 mph 19.6 mph N/A   Clear
3:55 AM 71.6 °F - 55.4 °F 57% 30.04 in 10.0 mi SSE 12.7 mph - N/A   Clear
4:15 AM 71.6 °F - 55.4 °F 57% 30.04 in 10.0 mi South 13.8 mph - N/A   Clear
4:35 AM 69.8 °F - 57.2 °F 64% 30.04 in 10.0 mi South 12.7 mph 17.3 mph N/A   Clear
4:55 AM 69.8 °F - 57.2 °F 64% 30.04 in 10.0 mi SSE 11.5 mph - N/A   Clear
5:15 AM 69.8 °F - 57.2 °F 64% 30.03 in 10.0 mi South 13.8 mph 19.6 mph N/A   Clear
5:55 AM 71.6 °F - 59.0 °F 64% 30.04 in 10.0 mi South 12.7 mph 17.3 mph N/A   Scattered Clouds
6:15 AM 69.8 °F - 59.0 °F 68% 30.04 in 10.0 mi South 12.7 mph 17.3 mph N/A   Scattered Clouds
6:35 AM 69.8 °F - 59.0 °F 68% 30.05 in 10.0 mi South 9.2 mph - N/A   Scattered Clouds
6:55 AM 69.8 °F - 59.0 °F 68% 30.05 in 10.0 mi South 13.8 mph 18.4 mph N/A   Mostly Cloudy
7:15 AM 69.8 °F - 59.0 °F 68% 30.06 in 10.0 mi South 10.4 mph 17.3 mph N/A   Scattered Clouds
7:35 AM 71.6 °F - 59.0 °F 64% 30.06 in 10.0 mi South 11.5 mph 19.6 mph N/A   Mostly Cloudy
7:55 AM 71.6 °F - 59.0 °F 64% 30.06 in 10.0 mi South 12.7 mph 16.1 mph N/A   Scattered Clouds
8:15 AM 71.6 °F - 59.0 °F 64% 30.06 in 10.0 mi SSW 13.8 mph 21.9 mph N/A   Scattered Clouds
8:35 AM 73.4 °F - 59.0 °F 61% 30.06 in 10.0 mi South 17.3 mph 21.9 mph N/A   Scattered Clouds
8:55 AM 73.4 °F - 59.0 °F 61% 30.07 in 10.0 mi South 12.7 mph 19.6 mph N/A   Scattered Clouds
9:15 AM 75.2 °F - 59.0 °F 57% 30.06 in 10.0 mi South 16.1 mph 24.2 mph N/A   Clear
9:35 AM 77.0 °F - 60.8 °F 57% 30.06 in 10.0 mi South 12.7 mph 20.7 mph N/A   Clear
9:55 AM 78.8 °F - 60.8 °F 54% 30.06 in 10.0 mi South 13.8 mph 19.6 mph N/A   Clear
10:15 AM 78.8 °F - 60.8 °F 54% 30.06 in 10.0 mi South 13.8 mph 20.7 mph N/A   Clear
10:35 AM 80.6 °F 81.5 °F 60.8 °F 51% 30.05 in 10.0 mi SSW 15.0 mph 21.9 mph N/A   Scattered Clouds
10:55 AM 80.6 °F 81.5 °F 60.8 °F 51% 30.05 in 10.0 mi South 16.1 mph 23.0 mph N/A   Mostly Cloudy
11:15 AM 82.4 °F 82.9 °F 60.8 °F 48% 30.06 in 10.0 mi South 18.4 mph 21.9 mph N/A   Mostly Cloudy
11:35 AM 82.4 °F 82.9 °F 60.8 °F 48% 30.06 in 10.0 mi SSW 16.1 mph 21.9 mph N/A   Mostly Cloudy
11:55 AM 82.4 °F 82.9 °F 60.8 °F 48% 30.05 in 10.0 mi SSW 15.0 mph - N/A   Mostly Cloudy
12:15 PM 84.2 °F 84.4 °F 60.8 °F 45% 30.04 in 10.0 mi SSW 13.8 mph 20.7 mph N/A   Mostly Cloudy
12:35 PM 86.0 °F 86.1 °F 60.8 °F 43% 30.04 in 10.0 mi South 12.7 mph 20.7 mph N/A   Mostly Cloudy
12:55 PM 87.8 °F 87.6 °F 60.8 °F 40% 30.03 in 10.0 mi SSW 15.0 mph 19.6 mph N/A   Mostly Cloudy
1:15 PM 89.6 °F 89.5 °F 60.8 °F 38% 30.03 in - South 16.1 mph 24.2 mph N/A   Scattered Clouds
1:35 PM 87.8 °F 87.6 °F 60.8 °F 40% 30.02 in 10.0 mi South 13.8 mph 19.6 mph N/A   Scattered Clouds
1:55 PM 89.6 °F 90.1 °F 62.6 °F 40% 30.02 in 10.0 mi SW 18.4 mph 26.5 mph N/A   Clear
2:15 PM 89.6 °F 89.5 °F 60.8 °F 38% 30.02 in 10.0 mi SSW 19.6 mph 25.3 mph N/A   Clear
2:35 PM 87.8 °F 87.6 °F 60.8 °F 40% 30.02 in 10.0 mi SSW 16.1 mph 19.6 mph N/A   Clear
2:55 PM 87.8 °F 88.5 °F 62.6 °F 43% 30.02 in 10.0 mi SW 13.8 mph - N/A   Clear
3:15 PM 87.8 °F 88.5 °F 62.6 °F 43% 30.02 in 10.0 mi SW 12.7 mph - N/A   Clear
3:35 PM 89.6 °F 90.1 °F 62.6 °F 40% 30.01 in 10.0 mi SW 15.0 mph 19.6 mph N/A   Clear
3:55 PM 89.6 °F 89.5 °F 60.8 °F 38% 30.01 in 10.0 mi SSW 18.4 mph 23.0 mph N/A   Clear
4:15 PM 87.8 °F 87.6 °F 60.8 °F 40% 30.01 in 10.0 mi WSW 10.4 mph - N/A   Clear
4:35 PM 87.8 °F 88.5 °F 62.6 °F 43% 30.00 in 10.0 mi West 9.2 mph - N/A   Clear
4:55 PM 87.8 °F 88.5 °F 62.6 °F 43% 29.99 in 10.0 mi West 6.9 mph - N/A   Clear
5:15 PM 87.8 °F 88.5 °F 62.6 °F 43% 29.98 in 10.0 mi WSW 8.1 mph - N/A   Clear
5:35 PM 87.8 °F 88.5 °F 62.6 °F 43% 29.98 in 10.0 mi SW 12.7 mph - N/A   Clear
5:55 PM 87.8 °F 87.6 °F 60.8 °F 40% 29.98 in 10.0 mi SW 6.9 mph - N/A   Clear
6:15 PM 87.8 °F 87.6 °F 60.8 °F 40% 29.98 in 10.0 mi SSE 6.9 mph - N/A   Clear
6:35 PM 87.8 °F 87.6 °F 60.8 °F 40% 29.99 in 10.0 mi SSW 16.1 mph 25.3 mph N/A   Clear
6:55 PM 84.2 °F 83.8 °F 59.0 °F 42% 29.98 in 10.0 mi SSW 17.3 mph 20.7 mph N/A   Clear
7:15 PM 82.4 °F 82.9 °F 60.8 °F 48% 29.98 in 10.0 mi SSW 13.8 mph - N/A   Clear
7:35 PM 82.4 °F 82.5 °F 59.0 °F 45% 29.98 in 10.0 mi SSW 13.8 mph 20.7 mph N/A   Clear
7:55 PM 82.4 °F 82.5 °F 59.0 °F 45% 29.99 in 10.0 mi SSW 13.8 mph 18.4 mph N/A   Clear
8:15 PM 80.6 °F 81.1 °F 59.0 °F 48% 29.99 in 10.0 mi South 10.4 mph - N/A   Clear
8:35 PM 80.6 °F 81.1 °F 59.0 °F 48% 29.98 in 10.0 mi SSW 6.9 mph - N/A   Clear
8:55 PM 80.6 °F 81.1 °F 59.0 °F 48% 29.99 in 10.0 mi South 11.5 mph - N/A   Clear
9:15 PM 80.6 °F 81.1 °F 59.0 °F 48% 29.99 in 10.0 mi South 10.4 mph - N/A   Scattered Clouds
9:35 PM 80.6 °F 81.1 °F 59.0 °F 48% 29.99 in 10.0 mi South 8.1 mph - N/A   Mostly Cloudy
9:55 PM 78.8 °F - 59.0 °F 51% 30.00 in 10.0 mi South 3.5 mph - N/A   Overcast
10:15 PM 78.8 °F - 59.0 °F 51% 30.01 in 10.0 mi South 8.1 mph - N/A   Mostly Cloudy
10:35 PM 77.0 °F - 60.8 °F 57% 30.02 in 10.0 mi SSE 4.6 mph - N/A   Mostly Cloudy
10:55 PM 78.8 °F - 60.8 °F 54% 30.03 in 10.0 mi WSW 11.5 mph 21.9 mph N/A   Overcast
11:15 PM 73.4 °F - 64.4 °F 73% 30.04 in 10.0 mi SW 4.6 mph - N/A Rain Light Rain
11:35 PM 73.4 °F - 62.6 °F 69% 30.04 in 10.0 mi SSW 6.9 mph - N/A   Overcast
11:55 PM 71.6 °F - 64.4 °F 78% 30.02 in 10.0 mi SW 8.1 mph - N/A Rain Light Rain